Time,TemperatureF,DewpointF,PressureIn,WindDirection,WindDirectionDegrees,WindSpeedMPH,WindSpeedGustMPH,Humidity,HourlyPrecipIn,Conditions,Clouds,dailyrainin,SoftwareType,DateUTC
2013-03-28 00:00:00,33.5,26.4,30.30,East,84,0.0,0.0,75,0.00,,---,0.00,VWS V14.01,2013-03-28 04:00:00,
2013-03-28 00:05:00,33.4,25.7,30.30,East,84,0.0,0.0,73,0.00,,---,0.00,VWS V14.01,2013-03-28 04:05:00,
2013-03-28 00:10:00,33.4,25.4,30.30,East,84,0.0,0.0,72,0.00,,---,0.00,VWS V14.01,2013-03-28 04:10:00,
2013-03-28 00:15:00,33.4,25.0,30.30,East,83,0.0,0.0,71,0.00,,---,0.00,VWS V14.01,2013-03-28 04:15:00,
2013-03-28 00:20:00,33.5,25.8,30.30,East,83,0.0,0.0,73,0.00,,---,0.00,VWS V14.01,2013-03-28 04:20:00,
2013-03-28 00:25:00,33.3,25.9,30.30,East,84,0.0,0.0,74,0.00,,---,0.00,VWS V14.01,2013-03-28 04:25:00,
2013-03-28 00:30:00,33.1,26.7,30.30,East,83,0.0,0.0,77,0.00,,---,0.00,VWS V14.01,2013-03-28 04:30:00,
2013-03-28 00:35:00,32.8,26.4,30.30,East,84,0.0,0.0,77,0.00,,---,0.00,VWS V14.01,2013-03-28 04:35:00,
2013-03-28 00:40:00,32.7,26.6,30.30,East,83,0.0,0.0,78,0.00,,---,0.00,VWS V14.01,2013-03-28 04:40:00,
2013-03-28 00:45:00,32.3,26.8,30.30,East,83,0.0,0.0,80,0.00,,---,0.00,VWS V14.01,2013-03-28 04:45:00,
2013-03-28 00:50:00,32.1,26.9,30.30,East,83,0.0,0.0,81,0.00,,---,0.00,VWS V14.01,2013-03-28 04:50:00,
2013-03-28 00:55:00,32.0,26.8,30.30,East,84,0.0,0.0,81,0.00,,---,0.00,VWS V14.01,2013-03-28 04:55:00,
2013-03-28 01:00:00,31.9,26.7,30.29,East,84,0.0,0.0,81,0.00,,---,0.00,VWS V14.01,2013-03-28 05:00:00,
2013-03-28 01:05:00,31.8,26.6,30.29,East,83,0.0,0.0,81,0.00,,---,0.00,VWS V14.01,2013-03-28 05:05:00,
2013-03-28 01:10:00,31.8,26.0,30.30,East,83,0.0,0.0,79,0.00,,---,0.00,VWS V14.01,2013-03-28 05:10:00,
2013-03-28 01:15:00,34.7,26.3,30.31,East,83,0.0,1.0,71,0.00,,---,0.00,VWS V14.01,2013-03-28 05:15:00,
2013-03-28 01:16:00,31.9,26.4,30.30,East,84,1.0,1.0,80,0.00,,---,0.00,VWS V14.01,2013-03-28 05:16:00,
2013-03-28 01:20:00,34.7,25.9,30.31,East,83,0.0,0.0,70,0.00,,---,0.00,VWS V14.01,2013-03-28 05:20:00,
2013-03-28 01:21:00,31.7,26.8,30.29,East,84,1.0,1.0,82,0.00,,---,0.00,VWS V14.01,2013-03-28 05:21:00,
2013-03-28 01:25:00,34.6,26.2,30.31,East,83,0.0,0.0,71,0.00,,---,0.00,VWS V14.01,2013-03-28 05:25:00,
2013-03-28 01:26:00,31.5,26.6,30.29,East,84,0.0,0.0,82,0.00,,---,0.00,VWS V14.01,2013-03-28 05:26:00,
2013-03-28 01:30:00,34.4,26.0,30.30,East,84,0.0,0.0,71,0.00,,---,0.00,VWS V14.01,2013-03-28 05:30:00,
2013-03-28 01:31:00,31.4,26.5,30.30,East,83,0.0,0.0,82,0.00,,---,0.00,VWS V14.01,2013-03-28 05:31:00,
2013-03-28 01:35:00,34.2,25.5,30.30,East,84,0.0,1.0,70,0.00,,---,0.00,VWS V14.01,2013-03-28 05:35:00,
2013-03-28 01:36:00,31.2,26.1,30.29,East,84,0.0,0.0,81,0.00,,---,0.00,VWS V14.01,2013-03-28 05:36:00,
2013-03-28 01:40:00,34.1,25.7,30.30,East,83,0.0,1.0,71,0.00,,---,0.00,VWS V14.01,2013-03-28 05:40:00,
2013-03-28 01:41:00,30.9,25.8,30.30,East,83,0.0,0.0,81,0.00,,---,0.00,VWS V14.01,2013-03-28 05:41:00,
2013-03-28 01:45:00,34.0,26.3,30.30,East,84,0.0,0.0,73,0.00,,---,0.00,VWS V14.01,2013-03-28 05:45:00,
2013-03-28 01:46:00,30.6,26.1,30.29,East,83,0.0,0.0,83,0.00,,---,0.00,VWS V14.01,2013-03-28 05:46:00,
2013-03-28 01:50:00,33.7,26.0,30.30,East,83,0.0,1.0,73,0.00,,---,0.00,VWS V14.01,2013-03-28 05:50:00,
2013-03-28 01:51:00,30.5,26.2,30.30,East,83,0.0,0.0,84,0.00,,---,0.00,VWS V14.01,2013-03-28 05:51:00,
2013-03-28 01:55:00,33.6,26.2,30.30,East,83,0.0,1.0,74,0.00,,---,0.00,VWS V14.01,2013-03-28 05:55:00,
2013-03-28 01:56:00,30.2,26.2,30.30,East,83,0.0,0.0,85,0.00,,---,0.00,VWS V14.01,2013-03-28 05:56:00,
2013-03-28 02:00:00,33.5,26.4,30.30,East,84,0.0,0.0,75,0.00,,---,0.00,VWS V14.01,2013-03-28 06:00:00,
2013-03-28 02:01:00,29.9,26.0,30.30,East,83,0.0,0.0,85,0.00,,---,0.00,VWS V14.01,2013-03-28 06:01:00,
2013-03-28 02:05:00,33.4,26.0,30.30,East,83,0.0,1.0,74,0.00,,---,0.00,VWS V14.01,2013-03-28 06:05:00,
2013-03-28 02:06:00,29.9,26.0,30.30,East,83,0.0,0.0,85,0.00,,---,0.00,VWS V14.01,2013-03-28 06:06:00,
2013-03-28 02:10:00,33.4,25.7,30.30,East,84,0.0,1.0,73,0.00,,---,0.00,VWS V14.01,2013-03-28 06:10:00,
2013-03-28 02:11:00,29.7,26.0,30.30,East,84,0.0,0.0,86,0.00,,---,0.00,VWS V14.01,2013-03-28 06:11:00,
2013-03-28 02:15:00,33.4,25.0,30.30,East,83,0.0,1.0,71,0.00,,---,0.00,VWS V14.01,2013-03-28 06:15:00,
2013-03-28 02:16:00,29.5,25.8,30.30,East,83,0.0,0.0,86,0.00,,---,0.00,VWS V14.01,2013-03-28 06:16:00,
2013-03-28 02:20:00,33.5,25.8,30.30,East,83,0.0,0.0,73,0.00,,---,0.00,VWS V14.01,2013-03-28 06:20:00,
2013-03-28 02:21:00,29.4,26.0,30.30,East,84,0.0,0.0,87,0.00,,---,0.00,VWS V14.01,2013-03-28 06:21:00,
2013-03-28 02:25:00,33.3,25.9,30.30,East,83,0.0,1.0,74,0.00,,---,0.00,VWS V14.01,2013-03-28 06:25:00,
2013-03-28 02:26:00,29.3,25.9,30.30,East,83,0.0,0.0,87,0.00,,---,0.00,VWS V14.01,2013-03-28 06:26:00,
2013-03-28 02:30:00,33.1,26.7,30.30,East,83,0.0,0.0,77,0.00,,---,0.00,VWS V14.01,2013-03-28 06:30:00,
2013-03-28 02:31:00,29.1,26.0,30.30,East,83,0.0,0.0,88,0.00,,---,0.00,VWS V14.01,2013-03-28 06:31:00,
2013-03-28 02:35:00,32.8,26.4,30.30,East,83,0.0,1.0,77,0.00,,---,0.00,VWS V14.01,2013-03-28 06:35:00,
2013-03-28 02:36:00,28.9,25.8,30.30,East,83,0.0,0.0,88,0.00,,---,0.00,VWS V14.01,2013-03-28 06:36:00,
2013-03-28 02:40:00,32.7,26.6,30.30,East,83,0.0,1.0,78,0.00,,---,0.00,VWS V14.01,2013-03-28 06:40:00,
2013-03-28 02:42:00,28.8,25.7,30.30,East,83,0.0,0.0,88,0.00,,---,0.00,VWS V14.01,2013-03-28 06:42:00,
2013-03-28 02:45:00,32.4,26.9,30.30,East,84,0.0,0.0,80,0.00,,---,0.00,VWS V14.01,2013-03-28 06:45:00,
2013-03-28 02:47:00,28.7,25.9,30.30,East,83,0.0,0.0,89,0.00,,---,0.00,VWS V14.01,2013-03-28 06:47:00,
2013-03-28 02:50:00,32.1,26.9,30.30,East,84,0.0,1.0,81,0.00,,---,0.00,VWS V14.01,2013-03-28 06:50:00,
2013-03-28 02:52:00,28.7,25.9,30.30,East,83,0.0,0.0,89,0.00,,---,0.00,VWS V14.01,2013-03-28 06:52:00,
2013-03-28 02:55:00,32.0,26.8,30.30,East,84,0.0,1.0,81,0.00,,---,0.00,VWS V14.01,2013-03-28 06:55:00,
2013-03-28 02:57:00,28.8,26.0,30.30,East,84,0.0,0.0,89,0.00,,---,0.00,VWS V14.01,2013-03-28 06:57:00,
2013-03-28 03:00:00,31.9,26.7,30.29,East,84,0.0,1.0,81,0.00,,---,0.00,VWS V14.01,2013-03-28 07:00:00,
2013-03-28 03:02:00,28.6,25.8,30.30,East,84,0.0,0.0,89,0.00,,---,0.00,VWS V14.01,2013-03-28 07:02:00,
2013-03-28 03:05:00,31.8,26.6,30.29,East,84,0.0,1.0,81,0.00,,---,0.00,VWS V14.01,2013-03-28 07:05:00,
2013-03-28 03:07:00,28.3,25.8,30.30,East,84,0.0,0.0,90,0.00,,---,0.00,VWS V14.01,2013-03-28 07:07:00,
2013-03-28 03:10:00,31.8,26.0,30.29,East,84,0.0,1.0,79,0.00,,---,0.00,VWS V14.01,2013-03-28 07:10:00,
2013-03-28 03:12:00,28.2,25.6,30.30,East,83,0.0,0.0,90,0.00,,---,0.00,VWS V14.01,2013-03-28 07:12:00,
2013-03-28 03:15:00,31.9,26.4,30.30,East,83,0.0,0.0,80,0.00,,---,0.00,VWS V14.01,2013-03-28 07:15:00,
2013-03-28 03:17:00,28.2,25.6,30.30,East,84,0.0,0.0,90,0.00,,---,0.00,VWS V14.01,2013-03-28 07:17:00,
2013-03-28 03:20:00,31.8,26.9,30.29,East,83,0.0,1.0,82,0.00,,---,0.00,VWS V14.01,2013-03-28 07:20:00,
2013-03-28 03:22:00,28.2,25.6,30.30,East,84,0.0,0.0,90,0.00,,---,0.00,VWS V14.01,2013-03-28 07:22:00,
2013-03-28 03:25:00,31.6,26.8,30.29,East,84,0.0,1.0,82,0.00,,---,0.00,VWS V14.01,2013-03-28 07:25:00,
2013-03-28 03:27:00,28.0,25.5,30.29,East,83,0.0,0.0,90,0.00,,---,0.00,VWS V14.01,2013-03-28 07:27:00,
2013-03-28 03:30:00,31.4,26.2,30.29,East,84,0.0,1.0,81,0.00,,---,0.00,VWS V14.01,2013-03-28 07:30:00,
2013-03-28 03:32:00,27.6,25.1,30.29,East,84,0.0,0.0,90,0.00,,---,0.00,VWS V14.01,2013-03-28 07:32:00,
2013-03-28 03:35:00,31.3,26.2,30.29,East,83,0.0,0.0,81,0.00,,---,0.00,VWS V14.01,2013-03-28 07:35:00,
2013-03-28 03:37:00,27.4,25.1,30.29,East,84,0.0,0.0,91,0.00,,---,0.00,VWS V14.01,2013-03-28 07:37:00,
2013-03-28 03:40:00,30.9,25.8,30.30,East,84,0.0,0.0,81,0.00,,---,0.00,VWS V14.01,2013-03-28 07:40:00,
2013-03-28 03:42:00,27.3,25.0,30.29,East,84,0.0,0.0,91,0.00,,---,0.00,VWS V14.01,2013-03-28 07:42:00,
2013-03-28 03:45:00,30.7,26.2,30.30,East,83,0.0,0.0,83,0.00,,---,0.00,VWS V14.01,2013-03-28 07:45:00,
2013-03-28 03:47:00,27.0,24.7,30.29,East,83,0.0,0.0,91,0.00,,---,0.00,VWS V14.01,2013-03-28 07:47:00,
2013-03-28 03:50:00,30.5,26.2,30.30,East,83,0.0,0.0,84,0.00,,---,0.00,VWS V14.01,2013-03-28 07:50:00,
2013-03-28 03:52:00,27.2,25.2,30.29,East,83,0.0,0.0,92,0.00,,---,0.00,VWS V14.01,2013-03-28 07:52:00,
2013-03-28 03:55:00,30.2,26.0,30.30,East,84,0.0,0.0,84,0.00,,---,0.00,VWS V14.01,2013-03-28 07:55:00,
2013-03-28 03:57:00,27.2,25.2,30.29,East,83,0.0,0.0,92,0.00,,---,0.00,VWS V14.01,2013-03-28 07:57:00,
2013-03-28 04:00:00,30.0,26.0,30.30,East,83,0.0,0.0,85,0.00,,---,0.00,VWS V14.01,2013-03-28 08:00:00,
2013-03-28 04:02:00,27.2,25.2,30.29,East,84,0.0,0.0,92,0.00,,---,0.00,VWS V14.01,2013-03-28 08:02:00,
2013-03-28 04:05:00,29.9,26.0,30.30,East,83,0.0,0.0,85,0.00,,---,0.00,VWS V14.01,2013-03-28 08:05:00,
2013-03-28 04:07:00,27.1,25.1,30.29,East,84,0.0,0.0,92,0.00,,---,0.00,VWS V14.01,2013-03-28 08:07:00,
2013-03-28 04:10:00,29.7,26.0,30.30,East,83,0.0,0.0,86,0.00,,---,0.00,VWS V14.01,2013-03-28 08:10:00,
2013-03-28 04:12:00,27.0,25.0,30.29,East,84,0.0,0.0,92,0.00,,---,0.00,VWS V14.01,2013-03-28 08:12:00,
2013-03-28 04:15:00,29.6,25.9,30.30,East,83,0.0,0.0,86,0.00,,---,0.00,VWS V14.01,2013-03-28 08:15:00,
2013-03-28 04:17:00,27.0,25.2,30.29,East,83,0.0,0.0,93,0.00,,---,0.00,VWS V14.01,2013-03-28 08:17:00,
2013-03-28 04:20:00,29.4,26.0,30.30,East,84,0.0,0.0,87,0.00,,---,0.00,VWS V14.01,2013-03-28 08:20:00,
2013-03-28 04:22:00,27.1,25.4,30.29,East,83,0.0,0.0,93,0.00,,---,0.00,VWS V14.01,2013-03-28 08:22:00,
2013-03-28 04:25:00,29.3,25.9,30.30,East,84,0.0,0.0,87,0.00,,---,0.00,VWS V14.01,2013-03-28 08:25:00,
2013-03-28 04:27:00,27.3,25.5,30.29,East,84,0.0,0.0,93,0.00,,---,0.00,VWS V14.01,2013-03-28 08:27:00,
2013-03-28 04:30:00,29.1,26.0,30.30,East,84,0.0,0.0,88,0.00,,---,0.00,VWS V14.01,2013-03-28 08:30:00,
2013-03-28 04:32:00,27.4,25.4,30.29,East,84,0.0,0.0,92,0.00,,---,0.00,VWS V14.01,2013-03-28 08:32:00,
2013-03-28 04:35:00,29.0,25.9,30.30,East,83,0.0,0.0,88,0.00,,---,0.00,VWS V14.01,2013-03-28 08:35:00,
2013-03-28 04:37:00,27.5,25.5,30.30,East,83,0.0,0.0,92,0.00,,---,0.00,VWS V14.01,2013-03-28 08:37:00,
2013-03-28 04:40:00,28.9,25.8,30.30,East,84,0.0,0.0,88,0.00,,---,0.00,VWS V14.01,2013-03-28 08:40:00,
2013-03-28 04:42:00,27.5,25.2,30.30,East,84,0.0,0.0,91,0.00,,---,0.00,VWS V14.01,2013-03-28 08:42:00,
2013-03-28 04:45:00,28.7,25.9,30.30,East,84,0.0,0.0,89,0.00,,---,0.00,VWS V14.01,2013-03-28 08:45:00,
2013-03-28 04:47:00,27.3,25.0,30.30,East,83,0.0,0.0,91,0.00,,---,0.00,VWS V14.01,2013-03-28 08:47:00,
2013-03-28 04:50:00,28.8,26.0,30.30,East,84,0.0,0.0,89,0.00,,---,0.00,VWS V14.01,2013-03-28 08:50:00,
2013-03-28 04:52:00,27.3,25.3,30.30,East,83,0.0,0.0,92,0.00,,---,0.00,VWS V14.01,2013-03-28 08:52:00,
2013-03-28 04:55:00,28.7,25.9,30.30,East,83,0.0,0.0,89,0.00,,---,0.00,VWS V14.01,2013-03-28 08:55:00,
2013-03-28 04:57:00,27.1,24.8,30.30,East,84,0.0,0.0,91,0.00,,---,0.00,VWS V14.01,2013-03-28 08:57:00,
2013-03-28 05:00:00,28.7,25.9,30.30,East,84,0.0,0.0,89,0.00,,---,0.00,VWS V14.01,2013-03-28 09:00:00,
2013-03-28 05:02:00,27.1,25.1,30.30,East,84,0.0,0.0,92,0.00,,---,0.00,VWS V14.01,2013-03-28 09:02:00,
2013-03-28 05:05:00,28.5,25.7,30.30,East,83,0.0,0.0,89,0.00,,---,0.00,VWS V14.01,2013-03-28 09:05:00,
2013-03-28 05:07:00,27.1,25.1,30.30,East,83,0.0,0.0,92,0.00,,---,0.00,VWS V14.01,2013-03-28 09:07:00,
2013-03-28 05:10:00,28.3,25.8,30.30,East,83,0.0,0.0,90,0.00,,---,0.00,VWS V14.01,2013-03-28 09:10:00,
2013-03-28 05:13:00,27.2,24.9,30.30,East,83,0.0,0.0,91,0.00,,---,0.00,VWS V14.01,2013-03-28 09:13:00,
2013-03-28 05:15:00,28.3,25.8,30.30,East,83,0.0,0.0,90,0.00,,---,0.00,VWS V14.01,2013-03-28 09:15:00,
2013-03-28 05:18:00,27.3,25.0,30.30,East,84,0.0,1.0,91,0.00,,---,0.00,VWS V14.01,2013-03-28 09:18:00,
2013-03-28 05:20:00,28.3,25.8,30.30,East,83,0.0,0.0,90,0.00,,---,0.00,VWS V14.01,2013-03-28 09:20:00,
2013-03-28 05:23:00,27.4,25.4,30.30,East,84,0.0,0.0,92,0.00,,---,0.00,VWS V14.01,2013-03-28 09:23:00,
2013-03-28 05:25:00,28.1,25.5,30.29,East,84,0.0,0.0,90,0.00,,---,0.00,VWS V14.01,2013-03-28 09:25:00,
2013-03-28 05:28:00,27.5,25.5,30.30,East,83,0.0,0.0,92,0.00,,---,0.00,VWS V14.01,2013-03-28 09:28:00,
2013-03-28 05:30:00,27.8,25.2,30.29,East,83,0.0,0.0,90,0.00,,---,0.00,VWS V14.01,2013-03-28 09:30:00,
2013-03-28 05:33:00,27.4,25.1,30.30,East,83,0.0,1.0,91,0.00,,---,0.00,VWS V14.01,2013-03-28 09:33:00,
2013-03-28 05:35:00,27.5,25.0,30.29,East,84,0.0,0.0,90,0.00,,---,0.00,VWS V14.01,2013-03-28 09:35:00,
2013-03-28 05:38:00,27.2,24.9,30.30,East,84,0.0,0.0,91,0.00,,---,0.00,VWS V14.01,2013-03-28 09:38:00,
2013-03-28 05:40:00,27.4,25.1,30.29,East,83,0.0,0.0,91,0.00,,---,0.00,VWS V14.01,2013-03-28 09:40:00,
2013-03-28 05:43:00,27.1,25.1,30.30,East,84,0.0,0.0,92,0.00,,---,0.00,VWS V14.01,2013-03-28 09:43:00,
2013-03-28 05:45:00,27.1,24.6,30.29,East,84,0.0,0.0,90,0.00,,---,0.00,VWS V14.01,2013-03-28 09:45:00,
2013-03-28 05:48:00,27.0,25.0,30.30,East,84,0.0,0.0,92,0.00,,---,0.00,VWS V14.01,2013-03-28 09:48:00,
2013-03-28 05:50:00,27.1,25.1,30.29,East,84,0.0,0.0,92,0.00,,---,0.00,VWS V14.01,2013-03-28 09:50:00,
2013-03-28 05:53:00,26.9,24.9,30.31,East,84,0.0,0.0,92,0.00,,---,0.00,VWS V14.01,2013-03-28 09:53:00,
2013-03-28 05:55:00,27.2,25.2,30.29,East,84,0.0,0.0,92,0.00,,---,0.00,VWS V14.01,2013-03-28 09:55:00,
2013-03-28 05:58:00,26.9,24.9,30.31,East,83,0.0,0.0,92,0.00,,---,0.00,VWS V14.01,2013-03-28 09:58:00,
2013-03-28 06:00:00,27.2,25.2,30.29,East,83,0.0,0.0,92,0.00,,---,0.00,VWS V14.01,2013-03-28 10:00:00,
2013-03-28 06:03:00,27.0,25.0,30.31,East,84,0.0,0.0,92,0.00,,---,0.00,VWS V14.01,2013-03-28 10:03:00,
2013-03-28 06:05:00,27.1,25.1,30.29,East,83,0.0,0.0,92,0.00,,---,0.00,VWS V14.01,2013-03-28 10:05:00,
2013-03-28 06:08:00,27.0,25.0,30.31,East,83,0.0,0.0,92,0.00,,---,0.00,VWS V14.01,2013-03-28 10:08:00,
2013-03-28 06:10:00,27.0,25.0,30.29,East,84,0.0,0.0,92,0.00,,---,0.00,VWS V14.01,2013-03-28 10:10:00,
2013-03-28 06:13:00,26.8,24.8,30.32,East,83,0.0,0.0,92,0.00,,---,0.00,VWS V14.01,2013-03-28 10:13:00,
2013-03-28 06:15:00,27.0,25.2,30.29,East,83,0.0,0.0,93,0.00,,---,0.00,VWS V14.01,2013-03-28 10:15:00,
2013-03-28 06:18:00,26.9,25.1,30.32,East,83,0.0,0.0,93,0.00,,---,0.00,VWS V14.01,2013-03-28 10:18:00,
2013-03-28 06:20:00,27.0,25.2,30.29,East,84,0.0,0.0,93,0.00,,---,0.00,VWS V14.01,2013-03-28 10:20:00,
2013-03-28 06:23:00,26.9,24.9,30.32,East,83,0.0,0.0,92,0.00,,---,0.00,VWS V14.01,2013-03-28 10:23:00,
2013-03-28 06:25:00,27.1,25.4,30.29,East,83,0.0,0.0,93,0.00,,---,0.00,VWS V14.01,2013-03-28 10:25:00,
2013-03-28 06:28:00,26.7,24.7,30.32,East,83,0.0,0.0,92,0.00,,---,0.00,VWS V14.01,2013-03-28 10:28:00,
2013-03-28 06:30:00,27.3,25.5,30.29,East,84,0.0,0.0,93,0.00,,---,0.00,VWS V14.01,2013-03-28 10:30:00,
2013-03-28 06:33:00,26.5,24.8,30.32,East,84,0.0,0.0,93,0.00,,---,0.00,VWS V14.01,2013-03-28 10:33:00,
2013-03-28 06:35:00,27.4,25.4,30.29,East,84,0.0,0.0,92,0.00,,---,0.00,VWS V14.01,2013-03-28 10:35:00,
2013-03-28 06:38:00,26.5,24.5,30.32,East,84,0.0,0.0,92,0.00,,---,0.00,VWS V14.01,2013-03-28 10:38:00,
2013-03-28 06:40:00,27.5,25.5,30.29,East,83,0.0,0.0,92,0.00,,---,0.00,VWS V14.01,2013-03-28 10:40:00,
2013-03-28 06:43:00,26.7,25.0,30.32,East,84,0.0,0.0,93,0.00,,---,0.00,VWS V14.01,2013-03-28 10:43:00,
2013-03-28 06:45:00,27.4,25.1,30.30,East,84,0.0,0.0,91,0.00,,---,0.00,VWS V14.01,2013-03-28 10:45:00,
2013-03-28 06:48:00,26.9,25.1,30.32,East,84,0.0,0.0,93,0.00,,---,0.00,VWS V14.01,2013-03-28 10:48:00,
2013-03-28 06:50:00,27.3,25.0,30.30,East,84,0.0,0.0,91,0.00,,---,0.00,VWS V14.01,2013-03-28 10:50:00,
2013-03-28 06:53:00,26.7,24.7,30.33,East,84,0.0,0.0,92,0.00,,---,0.00,VWS V14.01,2013-03-28 10:53:00,
2013-03-28 06:55:00,27.2,24.9,30.30,East,84,0.0,0.0,91,0.00,,---,0.00,VWS V14.01,2013-03-28 10:55:00,
2013-03-28 06:58:00,26.4,24.4,30.33,East,83,0.0,0.0,92,0.00,,---,0.00,VWS V14.01,2013-03-28 10:58:00,
2013-03-28 07:00:00,27.1,24.8,30.30,East,83,0.0,0.0,91,0.00,,---,0.00,VWS V14.01,2013-03-28 11:00:00,
2013-03-28 07:03:00,26.6,24.9,30.33,East,84,0.0,0.0,93,0.00,,---,0.00,VWS V14.01,2013-03-28 11:03:00,
2013-03-28 07:05:00,27.1,25.1,30.30,East,84,0.0,0.0,92,0.00,,---,0.00,VWS V14.01,2013-03-28 11:05:00,
2013-03-28 07:08:00,26.7,24.7,30.33,East,84,0.0,0.0,92,0.00,,---,0.00,VWS V14.01,2013-03-28 11:08:00,
2013-03-28 07:10:00,27.2,24.9,30.30,East,84,0.0,0.0,91,0.00,,---,0.00,VWS V14.01,2013-03-28 11:10:00,
2013-03-28 07:13:00,26.9,24.6,30.34,East,83,0.0,0.0,91,0.00,,---,0.00,VWS V14.01,2013-03-28 11:13:00,
2013-03-28 07:15:00,27.3,25.0,30.30,East,83,0.0,1.0,91,0.00,,---,0.00,VWS V14.01,2013-03-28 11:15:00,
2013-03-28 07:18:00,26.7,24.4,30.34,East,83,0.0,0.0,91,0.00,,---,0.00,VWS V14.01,2013-03-28 11:18:00,
2013-03-28 07:20:00,27.4,25.1,30.30,East,83,0.0,1.0,91,0.00,,---,0.00,VWS V14.01,2013-03-28 11:20:00,
2013-03-28 07:23:00,26.7,24.7,30.34,East,83,0.0,0.0,92,0.00,,---,0.00,VWS V14.01,2013-03-28 11:23:00,
2013-03-28 07:25:00,27.5,25.5,30.30,East,83,0.0,0.0,92,0.00,,---,0.00,VWS V14.01,2013-03-28 11:25:00,
2013-03-28 07:28:00,26.7,24.7,30.34,East,83,0.0,0.0,92,0.00,,---,0.00,VWS V14.01,2013-03-28 11:28:00,
2013-03-28 07:30:00,27.5,25.5,30.30,East,83,1.0,1.0,92,0.00,,---,0.00,VWS V14.01,2013-03-28 11:30:00,
2013-03-28 07:33:00,26.5,24.2,30.34,East,84,0.0,0.0,91,0.00,,---,0.00,VWS V14.01,2013-03-28 11:33:00,
2013-03-28 07:35:00,27.3,25.0,30.30,East,84,0.0,1.0,91,0.00,,---,0.00,VWS V14.01,2013-03-28 11:35:00,
2013-03-28 07:38:00,26.2,23.9,30.34,East,84,0.0,0.0,91,0.00,,---,0.00,VWS V14.01,2013-03-28 11:38:00,
2013-03-28 07:40:00,27.2,25.2,30.30,East,83,0.0,0.0,92,0.00,,---,0.00,VWS V14.01,2013-03-28 11:40:00,
2013-03-28 07:43:00,26.0,24.0,30.34,East,84,0.0,0.0,92,0.00,,---,0.00,VWS V14.01,2013-03-28 11:43:00,
2013-03-28 07:45:00,27.0,25.0,30.31,East,83,0.0,0.0,92,0.00,,---,0.00,VWS V14.01,2013-03-28 11:45:00,
2013-03-28 07:48:00,26.0,24.0,30.35,East,84,0.0,0.0,92,0.00,,---,0.00,VWS V14.01,2013-03-28 11:48:00,
2013-03-28 07:50:00,27.0,25.0,30.31,East,83,0.0,0.0,92,0.00,,---,0.00,VWS V14.01,2013-03-28 11:50:00,
2013-03-28 07:53:00,26.2,24.5,30.35,East,84,0.0,0.0,93,0.00,,---,0.00,VWS V14.01,2013-03-28 11:53:00,
2013-03-28 07:55:00,26.9,24.9,30.31,East,83,0.0,0.0,92,0.00,,---,0.00,VWS V14.01,2013-03-28 11:55:00,
2013-03-28 07:58:00,26.3,24.6,30.35,East,84,0.0,0.0,93,0.00,,---,0.00,VWS V14.01,2013-03-28 11:58:00,
2013-03-28 08:00:00,27.0,25.0,30.31,East,83,0.0,0.0,92,0.00,,---,0.00,VWS V14.01,2013-03-28 12:00:00,
2013-03-28 08:03:00,26.5,24.8,30.35,East,83,0.0,0.0,93,0.00,,---,0.00,VWS V14.01,2013-03-28 12:03:00,
2013-03-28 08:05:00,27.0,25.0,30.31,East,83,0.0,0.0,92,0.00,,---,0.00,VWS V14.01,2013-03-28 12:05:00,
2013-03-28 08:08:00,27.3,25.8,30.35,East,83,0.0,0.0,94,0.00,,---,0.00,VWS V14.01,2013-03-28 12:08:00,
2013-03-28 08:10:00,26.9,24.9,30.31,East,84,0.0,0.0,92,0.00,,---,0.00,VWS V14.01,2013-03-28 12:10:00,
2013-03-28 08:13:00,28.0,26.5,30.35,East,84,0.0,0.0,94,0.00,,---,0.00,VWS V14.01,2013-03-28 12:13:00,
2013-03-28 08:15:00,26.8,24.8,30.32,East,83,0.0,0.0,92,0.00,,---,0.00,VWS V14.01,2013-03-28 12:15:00,
2013-03-28 08:18:00,29.2,27.4,30.35,East,83,0.0,0.0,93,0.00,,---,0.00,VWS V14.01,2013-03-28 12:18:00,
2013-03-28 08:20:00,26.9,25.1,30.32,East,84,0.0,0.0,93,0.00,,---,0.00,VWS V14.01,2013-03-28 12:20:00,
2013-03-28 08:23:00,30.4,28.1,30.35,East,83,0.0,0.0,91,0.00,,---,0.00,VWS V14.01,2013-03-28 12:23:00,
2013-03-28 08:25:00,26.8,25.0,30.32,East,84,0.0,0.0,93,0.00,,---,0.00,VWS V14.01,2013-03-28 12:25:00,
2013-03-28 08:28:00,31.4,28.3,30.35,East,83,0.0,0.0,88,0.00,,---,0.00,VWS V14.01,2013-03-28 12:28:00,
2013-03-28 08:30:00,26.6,24.6,30.32,East,84,0.0,0.0,92,0.00,,---,0.00,VWS V14.01,2013-03-28 12:30:00,
2013-03-28 08:33:00,32.6,30.0,30.35,East,84,0.0,0.0,90,0.00,,---,0.00,VWS V14.01,2013-03-28 12:33:00,
2013-03-28 08:35:00,26.5,24.8,30.32,East,83,0.0,0.0,93,0.00,,---,0.00,VWS V14.01,2013-03-28 12:35:00,
2013-03-28 08:38:00,33.9,30.5,30.35,East,83,0.0,0.0,87,0.00,,---,0.00,VWS V14.01,2013-03-28 12:38:00,
2013-03-28 08:40:00,26.6,24.9,30.32,East,83,0.0,0.0,93,0.00,,---,0.00,VWS V14.01,2013-03-28 12:40:00,
2013-03-28 08:43:00,34.4,30.1,30.35,East,83,0.0,0.0,84,0.00,,---,0.00,VWS V14.01,2013-03-28 12:43:00,
2013-03-28 08:45:00,26.8,25.0,30.32,East,84,0.0,0.0,93,0.00,,---,0.00,VWS V14.01,2013-03-28 12:45:00,
2013-03-28 08:48:00,35.5,31.1,30.35,East,84,0.0,0.0,84,0.00,,---,0.00,VWS V14.01,2013-03-28 12:48:00,
2013-03-28 08:50:00,26.8,24.8,30.32,East,83,0.0,0.0,92,0.00,,---,0.00,VWS V14.01,2013-03-28 12:50:00,
2013-03-28 08:53:00,37.1,32.1,30.35,East,83,0.0,0.0,82,0.00,,---,0.00,VWS V14.01,2013-03-28 12:53:00,
2013-03-28 08:55:00,26.6,24.6,30.33,East,84,0.0,0.0,92,0.00,,---,0.00,VWS V14.01,2013-03-28 12:55:00,
2013-03-28 08:58:00,37.5,30.6,30.35,East,83,0.0,0.0,76,0.00,,---,0.00,VWS V14.01,2013-03-28 12:58:00,
2013-03-28 09:00:00,26.4,24.6,30.33,East,84,0.0,0.0,93,0.00,,---,0.00,VWS V14.01,2013-03-28 13:00:00,
2013-03-28 09:03:00,37.6,31.1,30.35,East,84,0.0,0.0,77,0.00,,---,0.00,VWS V14.01,2013-03-28 13:03:00,
2013-03-28 09:05:00,26.7,24.7,30.33,East,84,0.0,0.0,92,0.00,,---,0.00,VWS V14.01,2013-03-28 13:05:00,
2013-03-28 09:08:00,37.9,30.4,30.35,East,83,0.0,1.0,74,0.00,,---,0.00,VWS V14.01,2013-03-28 13:08:00,
2013-03-28 09:10:00,26.8,24.8,30.33,East,83,0.0,0.0,92,0.00,,---,0.00,VWS V14.01,2013-03-28 13:10:00,
2013-03-28 09:13:00,38.3,31.1,30.35,East,83,0.0,0.0,75,0.00,,---,0.00,VWS V14.01,2013-03-28 13:13:00,
2013-03-28 09:15:00,26.8,24.5,30.34,East,83,0.0,0.0,91,0.00,,---,0.00,VWS V14.01,2013-03-28 13:15:00,
2013-03-28 09:18:00,38.7,30.5,30.35,NW,326,0.0,1.0,72,0.00,,---,0.00,VWS V14.01,2013-03-28 13:18:00,
2013-03-28 09:20:00,26.7,24.4,30.34,East,84,0.0,0.0,91,0.00,,---,0.00,VWS V14.01,2013-03-28 13:20:00,
2013-03-28 09:23:00,39.4,30.1,30.36,NW,326,0.0,1.0,69,0.00,,---,0.00,VWS V14.01,2013-03-28 13:23:00,
2013-03-28 09:25:00,26.7,24.7,30.34,East,84,0.0,0.0,92,0.00,,---,0.00,VWS V14.01,2013-03-28 13:25:00,
2013-03-28 09:28:00,40.4,29.2,30.36,NNW,346,1.0,1.0,64,0.00,,---,0.00,VWS V14.01,2013-03-28 13:28:00,
2013-03-28 09:30:00,26.6,24.3,30.34,East,83,0.0,0.0,91,0.00,,---,0.00,VWS V14.01,2013-03-28 13:30:00,
2013-03-28 09:33:00,40.7,29.9,30.36,NW,316,1.0,1.0,65,0.00,,---,0.00,VWS V14.01,2013-03-28 13:33:00,
2013-03-28 09:35:00,26.4,24.1,30.34,East,84,0.0,0.0,91,0.00,,---,0.00,VWS V14.01,2013-03-28 13:35:00,
2013-03-28 09:38:00,41.2,29.2,30.36,WNW,302,1.0,1.0,62,0.00,,---,0.00,VWS V14.01,2013-03-28 13:38:00,
2013-03-28 09:40:00,26.1,23.8,30.34,East,84,0.0,0.0,91,0.00,,---,0.00,VWS V14.01,2013-03-28 13:40:00,
2013-03-28 09:43:00,42.1,30.0,30.36,NNW,327,1.0,2.0,62,0.00,,---,0.00,VWS V14.01,2013-03-28 13:43:00,
2013-03-28 09:45:00,26.0,24.0,30.34,East,83,0.0,0.0,92,0.00,,---,0.00,VWS V14.01,2013-03-28 13:45:00,
2013-03-28 09:48:00,42.5,28.8,30.36,WSW,238,3.0,3.0,58,0.00,,---,0.00,VWS V14.01,2013-03-28 13:48:00,
2013-03-28 09:50:00,26.1,24.1,30.35,East,83,0.0,0.0,92,0.00,,---,0.00,VWS V14.01,2013-03-28 13:50:00,
2013-03-28 09:53:00,42.3,27.3,30.36,West,281,2.0,3.0,55,0.00,,---,0.00,VWS V14.01,2013-03-28 13:53:00,
2013-03-28 09:55:00,26.2,24.5,30.35,East,83,0.0,0.0,93,0.00,,---,0.00,VWS V14.01,2013-03-28 13:55:00,
2013-03-28 09:58:00,43.0,28.4,30.36,WSW,253,1.0,3.0,56,0.00,,---,0.00,VWS V14.01,2013-03-28 13:58:00,
2013-03-28 10:00:00,26.4,24.6,30.35,East,84,0.0,0.0,93,0.00,,---,0.00,VWS V14.01,2013-03-28 14:00:00,
2013-03-28 10:03:00,43.6,28.1,30.36,NNW,338,0.0,6.0,54,0.00,,---,0.00,VWS V14.01,2013-03-28 14:03:00,
2013-03-28 10:05:00,26.7,25.0,30.35,East,83,0.0,0.0,93,0.00,,---,0.00,VWS V14.01,2013-03-28 14:05:00,
2013-03-28 10:08:00,43.9,27.9,30.36,SW,217,3.0,4.0,53,0.00,,---,0.00,VWS V14.01,2013-03-28 14:08:00,
2013-03-28 10:10:00,27.5,26.0,30.35,East,83,0.0,0.0,94,0.00,,---,0.00,VWS V14.01,2013-03-28 14:10:00,
2013-03-28 10:13:00,43.5,27.1,30.37,WSW,246,1.0,4.0,52,0.00,,---,0.00,VWS V14.01,2013-03-28 14:13:00,
2013-03-28 10:15:00,28.4,26.9,30.35,East,83,0.0,0.0,94,0.00,,---,0.00,VWS V14.01,2013-03-28 14:15:00,
2013-03-28 10:18:00,44.2,27.7,30.37,North,352,0.0,3.0,52,0.00,,---,0.00,VWS V14.01,2013-03-28 14:18:00,
2013-03-28 10:20:00,29.6,27.6,30.35,East,84,0.0,0.0,92,0.00,,---,0.00,VWS V14.01,2013-03-28 14:20:00,
2013-03-28 10:23:00,44.5,27.5,30.37,SW,218,0.0,3.0,51,0.00,,---,0.00,VWS V14.01,2013-03-28 14:23:00,
2013-03-28 10:25:00,30.8,28.5,30.35,East,84,0.0,0.0,91,0.00,,---,0.00,VWS V14.01,2013-03-28 14:25:00,
2013-03-28 10:28:00,44.8,27.8,30.37,WSW,245,0.0,2.0,51,0.00,,---,0.00,VWS V14.01,2013-03-28 14:28:00,
2013-03-28 10:30:00,31.7,28.6,30.35,East,84,0.0,0.0,88,0.00,,---,0.00,VWS V14.01,2013-03-28 14:30:00,
2013-03-28 10:33:00,45.2,28.6,30.37,WSW,248,2.0,2.0,52,0.00,,---,0.00,VWS V14.01,2013-03-28 14:33:00,
2013-03-28 10:35:00,33.1,29.7,30.35,East,83,0.0,0.0,87,0.00,,---,0.00,VWS V14.01,2013-03-28 14:35:00,
2013-03-28 10:38:00,46.2,27.6,30.37,West,276,1.0,3.0,48,0.00,,---,0.00,VWS V14.01,2013-03-28 14:38:00,
2013-03-28 10:40:00,34.1,30.1,30.35,East,83,0.0,0.0,85,0.00,,---,0.00,VWS V14.01,2013-03-28 14:40:00,
2013-03-28 10:43:00,47.0,28.9,30.37,NW,321,1.0,4.0,49,0.00,,---,0.00,VWS V14.01,2013-03-28 14:43:00,
2013-03-28 10:45:00,34.6,29.7,30.35,East,84,0.0,0.0,82,0.00,,---,0.00,VWS V14.01,2013-03-28 14:45:00,
2013-03-28 10:48:00,47.0,28.3,30.37,NW,322,2.0,8.0,48,0.00,,---,0.00,VWS V14.01,2013-03-28 14:48:00,
2013-03-28 10:50:00,36.1,32.0,30.35,East,83,0.0,0.0,85,0.00,,---,0.00,VWS V14.01,2013-03-28 14:50:00,
2013-03-28 10:53:00,46.3,27.2,30.37,WNW,295,2.0,6.0,47,0.00,,---,0.00,VWS V14.01,2013-03-28 14:53:00,
2013-03-28 10:55:00,37.4,31.8,30.35,East,83,0.0,0.0,80,0.00,,---,0.00,VWS V14.01,2013-03-28 14:55:00,
2013-03-28 10:58:00,46.7,27.6,30.37,NNW,338,1.0,6.0,47,0.00,,---,0.00,VWS V14.01,2013-03-28 14:58:00,
2013-03-28 11:00:00,37.5,31.0,30.35,East,84,0.0,0.0,77,0.00,,---,0.00,VWS V14.01,2013-03-28 15:00:00,
2013-03-28 11:03:00,47.5,27.8,30.37,WNW,288,8.0,9.0,46,0.00,,---,0.00,VWS V14.01,2013-03-28 15:03:00,
2013-03-28 11:05:00,37.7,30.2,30.35,East,84,0.0,1.0,74,0.00,,---,0.00,VWS V14.01,2013-03-28 15:05:00,
2013-03-28 11:08:00,47.3,27.6,30.37,NNW,341,2.0,7.0,46,0.00,,---,0.00,VWS V14.01,2013-03-28 15:08:00,
2013-03-28 11:10:00,38.0,30.1,30.35,East,83,0.0,1.0,73,0.00,,---,0.00,VWS V14.01,2013-03-28 15:10:00,
2013-03-28 11:14:00,48.0,27.1,30.37,WNW,282,1.0,7.0,44,0.00,,---,0.00,VWS V14.01,2013-03-28 15:14:00,
2013-03-28 11:15:00,38.5,31.3,30.35,NE,34,0.0,0.0,75,0.00,,---,0.00,VWS V14.01,2013-03-28 15:15:00,
2013-03-28 11:18:00,47.7,27.4,30.37,West,267,2.0,4.0,45,0.00,,---,0.00,VWS V14.01,2013-03-28 15:18:00,
2013-03-28 11:20:00,38.9,30.7,30.35,NW,326,0.0,1.0,72,0.00,,---,0.00,VWS V14.01,2013-03-28 15:20:00,
2013-03-28 11:24:00,48.5,27.6,30.37,WNW,295,5.0,5.0,44,0.00,,---,0.00,VWS V14.01,2013-03-28 15:24:00,
2013-03-28 11:25:00,39.8,30.1,30.36,NW,326,0.0,1.0,68,0.00,,---,0.00,VWS V14.01,2013-03-28 15:25:00,
2013-03-28 11:29:00,48.8,28.4,30.37,NNW,327,4.0,5.0,45,0.00,,---,0.00,VWS V14.01,2013-03-28 15:29:00,
2013-03-28 11:30:00,40.5,29.3,30.36,NW,308,1.0,2.0,64,0.00,,---,0.00,VWS V14.01,2013-03-28 15:30:00,
2013-03-28 11:34:00,49.0,28.6,30.36,NNW,346,1.0,6.0,45,0.00,,---,0.00,VWS V14.01,2013-03-28 15:34:00,
2013-03-28 11:35:00,40.8,28.8,30.36,WNW,302,0.0,2.0,62,0.00,,---,0.00,VWS V14.01,2013-03-28 15:35:00,
2013-03-28 11:39:00,49.9,28.9,30.36,West,264,1.0,5.0,44,0.00,,---,0.00,VWS V14.01,2013-03-28 15:39:00,
2013-03-28 11:40:00,41.4,28.2,30.36,WNW,293,1.0,2.0,59,0.00,,---,0.00,VWS V14.01,2013-03-28 15:40:00,
2013-03-28 11:44:00,49.9,29.4,30.36,NW,311,3.0,5.0,45,0.00,,---,0.00,VWS V14.01,2013-03-28 15:44:00,
2013-03-28 11:45:00,42.4,28.7,30.36,NW,304,1.0,2.0,58,0.00,,---,0.00,VWS V14.01,2013-03-28 15:45:00,
2013-03-28 11:49:00,49.9,28.3,30.36,NNE,23,2.0,4.0,43,0.00,,---,0.00,VWS V14.01,2013-03-28 15:49:00,
2013-03-28 11:50:00,42.5,27.9,30.36,WSW,248,2.0,3.0,56,0.00,,---,0.00,VWS V14.01,2013-03-28 15:50:00,
2013-03-28 11:54:00,49.6,27.5,30.36,ENE,77,4.0,5.0,42,0.00,,---,0.00,VWS V14.01,2013-03-28 15:54:00,
2013-03-28 11:55:00,42.3,27.3,30.36,North,354,2.0,3.0,55,0.00,,---,0.00,VWS V14.01,2013-03-28 15:55:00,
2013-03-28 11:59:00,50.0,29.0,30.36,West,260,3.0,5.0,44,0.00,,---,0.00,VWS V14.01,2013-03-28 15:59:00,
2013-03-28 12:00:00,43.2,27.7,30.36,North,353,6.0,7.0,54,0.00,,---,0.00,VWS V14.01,2013-03-28 16:00:00,
2013-03-28 12:04:00,49.9,27.7,30.36,WSW,257,2.0,4.0,42,0.00,,---,0.00,VWS V14.01,2013-03-28 16:04:00,
2013-03-28 12:05:00,43.9,28.4,30.36,South,186,0.0,6.0,54,0.00,,---,0.00,VWS V14.01,2013-03-28 16:05:00,
2013-03-28 12:09:00,50.1,27.9,30.36,NNE,30,3.0,5.0,42,0.00,,---,0.00,VWS V14.01,2013-03-28 16:09:00,
2013-03-28 12:10:00,43.7,27.7,30.36,SW,221,3.0,4.0,53,0.00,,---,0.00,VWS V14.01,2013-03-28 16:10:00,
2013-03-28 12:14:00,51.6,29.9,30.36,West,264,2.0,3.0,43,0.00,,---,0.00,VWS V14.01,2013-03-28 16:14:00,
2013-03-28 12:15:00,43.5,27.1,30.37,NW,306,1.0,4.0,52,0.00,,---,0.00,VWS V14.01,2013-03-28 16:15:00,
2013-03-28 12:19:00,51.4,29.1,30.36,WSW,256,1.0,6.0,42,0.00,,---,0.00,VWS V14.01,2013-03-28 16:19:00,
2013-03-28 12:20:00,44.4,27.4,30.37,WSW,254,1.0,3.0,51,0.00,,---,0.00,VWS V14.01,2013-03-28 16:20:00,
2013-03-28 12:24:00,51.3,28.4,30.36,NNW,334,4.0,6.0,41,0.00,,---,0.00,VWS V14.01,2013-03-28 16:24:00,
2013-03-28 12:25:00,44.6,27.6,30.37,SW,217,0.0,3.0,51,0.00,,---,0.00,VWS V14.01,2013-03-28 16:25:00,
2013-03-28 12:29:00,51.4,28.5,30.35,NNW,329,2.0,5.0,41,0.00,,---,0.00,VWS V14.01,2013-03-28 16:29:00,
2013-03-28 12:30:00,44.8,27.3,30.37,SSE,163,0.0,3.0,50,0.00,,---,0.00,VWS V14.01,2013-03-28 16:30:00,
2013-03-28 12:34:00,52.1,29.1,30.35,NNW,334,6.0,7.0,41,0.00,,---,0.00,VWS V14.01,2013-03-28 16:34:00,
2013-03-28 12:35:00,45.6,27.6,30.37,WSW,249,1.0,2.0,49,0.00,,---,0.00,VWS V14.01,2013-03-28 16:35:00,
2013-03-28 12:39:00,52.0,29.0,30.35,NE,41,2.0,5.0,41,0.00,,---,0.00,VWS V14.01,2013-03-28 16:39:00,
2013-03-28 12:40:00,46.4,27.3,30.37,ESE,120,2.0,3.0,47,0.00,,---,0.00,VWS V14.01,2013-03-28 16:40:00,
2013-03-28 12:44:00,52.9,30.5,30.35,NE,46,0.0,4.0,42,0.00,,---,0.00,VWS V14.01,2013-03-28 16:44:00,
2013-03-28 12:45:00,47.3,28.1,30.37,NNW,333,3.0,8.0,47,0.00,,---,0.00,VWS V14.01,2013-03-28 16:45:00,
2013-03-28 12:49:00,54.5,30.7,30.35,NE,34,1.0,2.0,40,0.00,,---,0.00,VWS V14.01,2013-03-28 16:49:00,
2013-03-28 12:50:00,47.1,26.9,30.37,WNW,284,3.0,8.0,45,0.00,,---,0.00,VWS V14.01,2013-03-28 16:50:00,
2013-03-28 12:54:00,55.2,29.4,30.35,NW,308,4.0,6.0,37,0.00,,---,0.00,VWS V14.01,2013-03-28 16:54:00,
2013-03-28 12:55:00,46.5,27.9,30.37,WNW,301,5.0,6.0,48,0.00,,---,0.00,VWS V14.01,2013-03-28 16:55:00,
2013-03-28 12:59:00,54.3,29.2,30.35,North,360,2.0,4.0,38,0.00,,---,0.00,VWS V14.01,2013-03-28 16:59:00,
2013-03-28 13:00:00,46.9,27.7,30.37,SE,125,1.0,6.0,47,0.00,,---,0.00,VWS V14.01,2013-03-28 17:00:00,
2013-03-28 13:04:00,54.0,28.3,30.34,East,90,4.0,6.0,37,0.00,,---,0.00,VWS V14.01,2013-03-28 17:04:00,
2013-03-28 13:05:00,47.4,27.7,30.37,NNW,334,3.0,9.0,46,0.00,,---,0.00,VWS V14.01,2013-03-28 17:05:00,
2013-03-28 13:09:00,53.8,29.4,30.34,WNW,290,7.0,7.0,39,0.00,,---,0.00,VWS V14.01,2013-03-28 17:09:00,
2013-03-28 13:10:00,47.6,27.9,30.37,North,360,1.0,7.0,46,0.00,,---,0.00,VWS V14.01,2013-03-28 17:10:00,
2013-03-28 13:14:00,53.4,29.1,30.34,WNW,295,4.0,7.0,39,0.00,,---,0.00,VWS V14.01,2013-03-28 17:14:00,
2013-03-28 13:15:00,47.8,27.5,30.37,North,8,2.0,7.0,45,0.00,,---,0.00,VWS V14.01,2013-03-28 17:15:00,
2013-03-28 13:19:00,54.5,30.1,30.34,East,82,2.0,4.0,39,0.00,,---,0.00,VWS V14.01,2013-03-28 17:19:00,
2013-03-28 13:20:00,47.7,27.4,30.37,West,281,3.0,5.0,45,0.00,,---,0.00,VWS V14.01,2013-03-28 17:20:00,
2013-03-28 13:24:00,55.5,30.3,30.34,NW,315,2.0,6.0,38,0.00,,---,0.00,VWS V14.01,2013-03-28 17:24:00,
2013-03-28 13:25:00,48.5,27.6,30.37,NNW,328,2.0,5.0,44,0.00,,---,0.00,VWS V14.01,2013-03-28 17:25:00,
2013-03-28 13:29:00,55.5,29.7,30.33,NW,307,6.0,8.0,37,0.00,,---,0.00,VWS V14.01,2013-03-28 17:29:00,
2013-03-28 13:30:00,48.8,28.4,30.37,West,276,3.0,7.0,45,0.00,,---,0.00,VWS V14.01,2013-03-28 17:30:00,
2013-03-28 13:34:00,54.9,31.7,30.33,NW,317,2.0,5.0,41,0.00,,---,0.00,VWS V14.01,2013-03-28 17:34:00,
2013-03-28 13:35:00,49.2,29.3,30.36,NW,316,1.0,6.0,46,0.00,,---,0.00,VWS V14.01,2013-03-28 17:35:00,
2013-03-28 13:39:00,55.1,29.3,30.33,ENE,58,9.0,9.0,37,0.00,,---,0.00,VWS V14.01,2013-03-28 17:39:00,
2013-03-28 13:40:00,49.9,28.9,30.36,NW,320,2.0,5.0,44,0.00,,---,0.00,VWS V14.01,2013-03-28 17:40:00,
2013-03-28 13:44:00,54.5,30.7,30.33,ENE,59,4.0,9.0,40,0.00,,---,0.00,VWS V14.01,2013-03-28 17:44:00,
2013-03-28 13:45:00,49.9,28.3,30.36,West,276,0.0,5.0,43,0.00,,---,0.00,VWS V14.01,2013-03-28 17:45:00,
2013-03-28 13:49:00,54.6,29.5,30.33,NW,315,4.0,8.0,38,0.00,,---,0.00,VWS V14.01,2013-03-28 17:49:00,
2013-03-28 13:50:00,50.0,28.4,30.36,NE,45,1.0,4.0,43,0.00,,---,0.00,VWS V14.01,2013-03-28 17:50:00,
2013-03-28 13:54:00,54.7,30.2,30.33,NNW,337,4.0,6.0,39,0.00,,---,0.00,VWS V14.01,2013-03-28 17:54:00,
2013-03-28 13:55:00,49.4,28.4,30.36,ENE,68,2.0,5.0,44,0.00,,---,0.00,VWS V14.01,2013-03-28 17:55:00,
2013-03-28 13:59:00,54.5,29.4,30.32,East,94,2.0,7.0,38,0.00,,---,0.00,VWS V14.01,2013-03-28 17:59:00,
2013-03-28 14:00:00,50.0,28.4,30.36,NW,314,2.0,5.0,43,0.00,,---,0.00,VWS V14.01,2013-03-28 18:00:00,
2013-03-28 14:04:00,55.2,31.3,30.32,NNE,25,3.0,6.0,40,0.00,,---,0.00,VWS V14.01,2013-03-28 18:04:00,
2013-03-28 14:05:00,49.8,27.6,30.36,SSW,198,2.0,4.0,42,0.00,,---,0.00,VWS V14.01,2013-03-28 18:05:00,
2013-03-28 14:09:00,55.5,31.6,30.32,East,79,3.0,10.0,40,0.00,,---,0.00,VWS V14.01,2013-03-28 18:09:00,
2013-03-28 14:10:00,50.4,28.8,30.36,NNE,24,2.0,5.0,43,0.00,,---,0.00,VWS V14.01,2013-03-28 18:10:00,
2013-03-28 14:14:00,55.9,30.0,30.32,North,360,1.0,9.0,37,0.00,,---,0.00,VWS V14.01,2013-03-28 18:14:00,
2013-03-28 14:15:00,51.8,29.5,30.36,SSE,160,4.0,4.0,42,0.00,,---,0.00,VWS V14.01,2013-03-28 18:15:00,
2013-03-28 14:19:00,56.9,31.6,30.31,ENE,71,2.0,5.0,38,0.00,,---,0.00,VWS V14.01,2013-03-28 18:19:00,
2013-03-28 14:20:00,51.6,29.3,30.36,North,360,3.0,6.0,42,0.00,,---,0.00,VWS V14.01,2013-03-28 18:20:00,
2013-03-28 14:24:00,57.6,31.5,30.31,SW,224,3.0,14.0,37,0.00,,---,0.00,VWS V14.01,2013-03-28 18:24:00,
2013-03-28 14:25:00,51.3,28.4,30.36,NNW,339,3.0,6.0,41,0.00,,---,0.00,VWS V14.01,2013-03-28 18:25:00,
2013-03-28 14:29:00,57.7,31.0,30.31,SSE,149,2.0,9.0,36,0.00,,---,0.00,VWS V14.01,2013-03-28 18:29:00,
2013-03-28 14:30:00,51.7,29.4,30.36,SSW,211,3.0,7.0,42,0.00,,---,0.00,VWS V14.01,2013-03-28 18:30:00,
2013-03-28 14:34:00,58.0,31.2,30.31,ENE,70,1.0,12.0,36,0.00,,---,0.00,VWS V14.01,2013-03-28 18:34:00,
2013-03-28 14:35:00,51.9,28.4,30.35,North,8,4.0,7.0,40,0.00,,---,0.00,VWS V14.01,2013-03-28 18:35:00,
2013-03-28 14:39:00,57.8,30.4,30.30,ESE,120,6.0,10.0,35,0.00,,---,0.00,VWS V14.01,2013-03-28 18:39:00,
2013-03-28 14:40:00,52.2,29.2,30.35,NW,311,3.0,5.0,41,0.00,,---,0.00,VWS V14.01,2013-03-28 18:40:00,
2013-03-28 14:44:00,57.9,31.1,30.30,SE,141,6.0,9.0,36,0.00,,---,0.00,VWS V14.01,2013-03-28 18:44:00,
2013-03-28 14:45:00,53.3,30.2,30.35,NNW,345,0.0,4.0,41,0.00,,---,0.00,VWS V14.01,2013-03-28 18:45:00,
2013-03-28 14:49:00,57.7,31.0,30.30,WSW,242,1.0,10.0,36,0.00,,---,0.00,VWS V14.01,2013-03-28 18:49:00,
2013-03-28 14:50:00,54.6,30.8,30.35,NNE,15,0.0,2.0,40,0.00,,---,0.00,VWS V14.01,2013-03-28 18:50:00,
2013-03-28 14:54:00,57.8,30.4,30.30,SE,132,4.0,7.0,35,0.00,,---,0.00,VWS V14.01,2013-03-28 18:54:00,
2013-03-28 14:55:00,54.7,28.3,30.35,ENE,70,1.0,6.0,36,0.00,,---,0.00,VWS V14.01,2013-03-28 18:55:00,
2013-03-28 14:59:00,58.4,31.6,30.30,SW,222,4.0,8.0,36,0.00,,---,0.00,VWS V14.01,2013-03-28 18:59:00,
2013-03-28 15:00:00,54.3,29.2,30.35,WNW,288,2.0,4.0,38,0.00,,---,0.00,VWS V14.01,2013-03-28 19:00:00,
2013-03-28 15:05:00,58.6,31.0,30.29,SE,130,5.0,10.0,35,0.00,,---,0.00,VWS V14.01,2013-03-28 19:05:00,
2013-03-28 15:10:00,58.8,30.5,30.29,WSW,250,5.0,7.0,34,0.00,,---,0.00,VWS V14.01,2013-03-28 19:10:00,
2013-03-28 15:15:00,58.8,31.2,30.29,SE,142,4.0,6.0,35,0.00,,---,0.00,VWS V14.01,2013-03-28 19:15:00,
2013-03-28 15:20:00,58.9,30.6,30.28,WSW,252,2.0,7.0,34,0.00,,---,0.00,VWS V14.01,2013-03-28 19:20:00,
2013-03-28 15:24:00,58.7,31.8,30.28,SSE,150,2.0,4.0,36,0.00,,---,0.00,VWS V14.01,2013-03-28 19:24:00,
2013-03-28 15:25:00,55.7,31.1,30.34,North,351,3.0,6.0,39,0.00,,---,0.00,VWS V14.01,2013-03-28 19:25:00,
2013-03-28 15:29:00,58.6,30.3,30.28,East,89,0.0,6.0,34,0.00,,---,0.00,VWS V14.01,2013-03-28 19:29:00,
2013-03-28 15:30:00,55.2,29.4,30.33,ENE,75,2.0,8.0,37,0.00,,---,0.00,VWS V14.01,2013-03-28 19:30:00,
2013-03-28 15:34:00,59.0,30.7,30.28,WSW,252,2.0,11.0,34,0.00,,---,0.00,VWS V14.01,2013-03-28 19:34:00,
2013-03-28 15:35:00,55.2,30.1,30.33,NNW,345,2.0,7.0,38,0.00,,---,0.00,VWS V14.01,2013-03-28 19:35:00,
2013-03-28 15:40:00,59.5,31.1,30.28,SSE,149,4.0,10.0,34,0.00,,---,0.00,VWS V14.01,2013-03-28 19:40:00,
2013-03-28 15:45:00,59.3,31.0,30.28,ESE,121,3.0,15.0,34,0.00,,---,0.00,VWS V14.01,2013-03-28 19:45:00,
2013-03-28 15:50:00,59.8,31.4,30.27,WSW,245,4.0,9.0,34,0.00,,---,0.00,VWS V14.01,2013-03-28 19:50:00,
2013-03-28 15:55:00,59.0,30.7,30.27,SSE,149,4.0,14.0,34,0.00,,---,0.00,VWS V14.01,2013-03-28 19:55:00,
2013-03-28 16:00:00,58.9,31.3,30.27,WSW,243,8.0,10.0,35,0.00,,---,0.00,VWS V14.01,2013-03-28 20:00:00,
2013-03-28 16:05:00,59.1,31.5,30.27,NE,36,1.0,11.0,35,0.00,,---,0.00,VWS V14.01,2013-03-28 20:05:00,
2013-03-28 16:10:00,59.7,31.3,30.27,NW,319,2.0,9.0,34,0.00,,---,0.00,VWS V14.01,2013-03-28 20:10:00,
2013-03-28 16:15:00,59.8,31.4,30.26,West,275,3.0,9.0,34,0.00,,---,0.00,VWS V14.01,2013-03-28 20:15:00,
2013-03-28 16:20:00,60.0,30.8,30.26,West,264,1.0,14.0,33,0.00,,---,0.00,VWS V14.01,2013-03-28 20:20:00,
2013-03-28 16:25:00,59.6,31.9,30.26,NNE,15,0.0,11.0,35,0.00,,---,0.00,VWS V14.01,2013-03-28 20:25:00,
2013-03-28 16:30:00,59.9,31.5,30.26,SE,131,6.0,10.0,34,0.00,,---,0.00,VWS V14.01,2013-03-28 20:30:00,
2013-03-28 16:35:00,59.7,31.3,30.26,West,263,3.0,14.0,34,0.00,,---,0.00,VWS V14.01,2013-03-28 20:35:00,
2013-03-28 16:40:00,59.1,31.5,30.26,West,260,3.0,17.0,35,0.00,,---,0.00,VWS V14.01,2013-03-28 20:40:00,
2013-03-28 16:45:00,59.1,30.8,30.26,SSW,195,6.0,10.0,34,0.00,,---,0.00,VWS V14.01,2013-03-28 20:45:00,
2013-03-28 16:50:00,59.2,31.6,30.25,WSW,245,9.0,16.0,35,0.00,,---,0.00,VWS V14.01,2013-03-28 20:50:00,
2013-03-28 16:55:00,59.3,31.7,30.25,SSE,149,3.0,14.0,35,0.00,,---,0.00,VWS V14.01,2013-03-28 20:55:00,
2013-03-28 17:00:00,59.1,30.8,30.25,SSE,158,3.0,14.0,34,0.00,,---,0.00,VWS V14.01,2013-03-28 21:00:00,
2013-03-28 17:05:00,59.7,31.3,30.25,SSW,207,5.0,8.0,34,0.00,,---,0.00,VWS V14.01,2013-03-28 21:05:00,
2013-03-28 17:10:00,59.8,30.7,30.25,SSE,160,6.0,18.0,33,0.00,,---,0.00,VWS V14.01,2013-03-28 21:10:00,
2013-03-28 17:15:00,59.2,30.9,30.25,West,260,2.0,14.0,34,0.00,,---,0.00,VWS V14.01,2013-03-28 21:15:00,
2013-03-28 17:20:00,59.2,31.6,30.25,South,183,5.0,6.0,35,0.00,,---,0.00,VWS V14.01,2013-03-28 21:20:00,
2013-03-28 17:25:00,59.3,31.7,30.25,WSW,238,2.0,2.0,35,0.00,,---,0.00,VWS V14.01,2013-03-28 21:25:00,
2013-03-28 17:30:00,59.8,32.8,30.25,WSW,238,5.0,6.0,36,0.00,,---,0.00,VWS V14.01,2013-03-28 21:30:00,
2013-03-28 17:35:00,59.7,31.3,30.25,SSW,203,3.0,3.0,34,0.00,,---,0.00,VWS V14.01,2013-03-28 21:35:00,
2013-03-28 17:40:00,59.6,31.9,30.25,West,270,2.0,2.0,35,0.00,,---,0.00,VWS V14.01,2013-03-28 21:40:00,
2013-03-28 17:45:00,60.0,31.6,30.25,WNW,283,3.0,3.0,34,0.00,,---,0.00,VWS V14.01,2013-03-28 21:45:00,
2013-03-28 17:50:00,59.5,31.1,30.25,West,260,2.0,2.0,34,0.00,,---,0.00,VWS V14.01,2013-03-28 21:50:00,
2013-03-28 17:55:00,59.7,31.3,30.25,WSW,242,12.0,12.0,34,0.00,,---,0.00,VWS V14.01,2013-03-28 21:55:00,
2013-03-28 18:00:00,59.3,32.4,30.25,West,268,6.0,6.0,36,0.00,,---,0.00,VWS V14.01,2013-03-28 22:00:00,
2013-03-28 18:05:00,59.1,30.8,30.25,SE,132,0.0,2.0,34,0.00,,---,0.00,VWS V14.01,2013-03-28 22:05:00,
2013-03-28 18:10:00,59.0,30.7,30.25,South,170,3.0,3.0,34,0.00,,---,0.00,VWS V14.01,2013-03-28 22:10:00,
2013-03-28 18:15:00,58.7,31.1,30.25,SSE,167,2.0,4.0,35,0.00,,---,0.00,VWS V14.01,2013-03-28 22:15:00,
2013-03-28 18:20:00,58.5,31.0,30.25,South,190,2.0,3.0,35,0.00,,---,0.00,VWS V14.01,2013-03-28 22:20:00,
2013-03-28 18:25:00,58.5,31.0,30.25,SSE,167,4.0,5.0,35,0.00,,---,0.00,VWS V14.01,2013-03-28 22:25:00,
2013-03-28 18:30:00,58.6,30.3,30.25,SSE,148,2.0,4.0,34,0.00,,---,0.00,VWS V14.01,2013-03-28 22:30:00,
2013-03-28 18:35:00,58.5,30.2,30.25,SE,140,4.0,8.0,34,0.00,,---,0.00,VWS V14.01,2013-03-28 22:35:00,
2013-03-28 18:40:00,58.2,30.7,30.25,WSW,246,3.0,6.0,35,0.00,,---,0.00,VWS V14.01,2013-03-28 22:40:00,
2013-03-28 18:45:00,57.9,31.1,30.26,SW,224,3.0,6.0,36,0.00,,---,0.00,VWS V14.01,2013-03-28 22:45:00,
2013-03-28 18:50:00,57.8,30.4,30.25,SE,127,1.0,4.0,35,0.00,,---,0.00,VWS V14.01,2013-03-28 22:50:00,
2013-03-28 18:55:00,57.6,30.9,30.26,WNW,301,3.0,6.0,36,0.00,,---,0.00,VWS V14.01,2013-03-28 22:55:00,
2013-03-28 19:00:00,57.4,30.7,30.26,WSW,257,1.0,1.0,36,0.00,,---,0.00,VWS V14.01,2013-03-28 23:00:00,
2013-03-28 19:05:00,57.4,30.7,30.26,SSE,160,1.0,2.0,36,0.00,,---,0.00,VWS V14.01,2013-03-28 23:05:00,
2013-03-28 19:10:00,59.8,30.7,30.25,SSE,160,6.0,18.0,33,0.00,,---,0.00,VWS V14.01,2013-03-28 23:10:00,
2013-03-28 19:11:00,57.1,30.4,30.26,SSE,163,4.0,4.0,36,0.00,,---,0.00,VWS V14.01,2013-03-28 23:11:00,
2013-03-28 19:15:00,56.8,30.1,30.26,South,174,4.0,8.0,36,0.00,,---,0.00,VWS V14.01,2013-03-28 23:15:00,
2013-03-28 19:20:00,56.5,31.2,30.26,SW,231,1.0,3.0,38,0.00,,---,0.00,VWS V14.01,2013-03-28 23:20:00,
2013-03-28 19:25:00,59.3,31.7,30.25,WSW,238,2.0,7.0,35,0.00,,---,0.00,VWS V14.01,2013-03-28 23:25:00,
2013-03-28 19:26:00,56.3,31.0,30.26,WSW,250,2.0,2.0,38,0.00,,---,0.00,VWS V14.01,2013-03-28 23:26:00,
2013-03-28 19:30:00,59.7,32.7,30.25,SSE,156,3.0,6.0,36,0.00,,---,0.00,VWS V14.01,2013-03-28 23:30:00,
2013-03-28 19:31:00,55.9,30.7,30.26,WSW,242,3.0,4.0,38,0.00,,---,0.00,VWS V14.01,2013-03-28 23:31:00,
2013-03-28 19:35:00,59.7,31.3,30.25,WSW,252,2.0,9.0,34,0.00,,---,0.00,VWS V14.01,2013-03-28 23:35:00,
2013-03-28 19:36:00,55.4,30.9,30.26,SSE,158,3.0,3.0,39,0.00,,---,0.00,VWS V14.01,2013-03-28 23:36:00,
2013-03-28 19:40:00,59.6,31.9,30.25,West,270,1.0,12.0,35,0.00,,---,0.00,VWS V14.01,2013-03-28 23:40:00,
2013-03-28 19:41:00,55.0,30.5,30.26,WSW,243,0.0,3.0,39,0.00,,---,0.00,VWS V14.01,2013-03-28 23:41:00,
2013-03-28 19:45:00,60.0,32.3,30.25,West,266,2.0,6.0,35,0.00,,---,0.00,VWS V14.01,2013-03-28 23:45:00,
2013-03-28 19:46:00,54.6,30.8,30.26,SW,221,0.0,1.0,40,0.00,,---,0.00,VWS V14.01,2013-03-28 23:46:00,
2013-03-28 19:50:00,59.6,30.5,30.25,NE,52,1.0,8.0,33,0.00,,---,0.00,VWS V14.01,2013-03-28 23:50:00,
2013-03-28 19:51:00,54.3,31.1,30.27,West,261,1.0,2.0,41,0.00,,---,0.00,VWS V14.01,2013-03-28 23:51:00,
2013-03-28 19:55:00,59.7,31.3,30.25,SE,132,3.0,5.0,34,0.00,,---,0.00,VWS V14.01,2013-03-28 23:55:00,
2013-03-28 19:56:00,53.8,30.7,30.27,West,273,2.0,3.0,41,0.00,,---,0.00,VWS V14.01,2013-03-28 23:56:00,
2013-03-28 20:00:00,59.3,32.4,30.25,WSW,256,4.0,12.0,36,0.00,,---,0.00,VWS V14.01,2013-03-29 00:00:00,
2013-03-28 20:01:00,53.6,31.1,30.27,WSW,242,0.0,1.0,42,0.00,,---,0.00,VWS V14.01,2013-03-29 00:01:00,
2013-03-28 20:05:00,59.0,30.7,30.25,SE,132,2.0,9.0,34,0.00,,---,0.00,VWS V14.01,2013-03-29 00:05:00,
2013-03-28 20:06:00,53.2,30.7,30.27,WSW,242,0.0,0.0,42,0.00,,---,0.00,VWS V14.01,2013-03-29 00:06:00,
2013-03-28 20:10:00,59.0,30.7,30.25,West,268,2.0,10.0,34,0.00,,---,0.00,VWS V14.01,2013-03-29 00:10:00,
2013-03-28 20:11:00,52.8,31.5,30.28,West,274,0.0,0.0,44,0.00,,---,0.00,VWS V14.01,2013-03-29 00:11:00,
2013-03-28 20:15:00,58.8,31.2,30.25,SW,231,4.0,7.0,35,0.00,,---,0.00,VWS V14.01,2013-03-29 00:15:00,
2013-03-28 20:16:00,52.1,32.5,30.28,West,274,1.0,1.0,47,0.00,,---,0.00,VWS V14.01,2013-03-29 00:16:00,
2013-03-28 20:20:00,58.5,31.0,30.25,WNW,283,2.0,11.0,35,0.00,,---,0.00,VWS V14.01,2013-03-29 00:20:00,
2013-03-28 20:21:00,51.5,31.4,30.28,West,274,0.0,0.0,46,0.00,,---,0.00,VWS V14.01,2013-03-29 00:21:00,
2013-03-28 20:25:00,58.5,31.0,30.25,SSE,155,2.0,15.0,35,0.00,,---,0.00,VWS V14.01,2013-03-29 00:25:00,
2013-03-28 20:26:00,51.3,31.2,30.28,West,274,0.0,1.0,46,0.00,,---,0.00,VWS V14.01,2013-03-29 00:26:00,
2013-03-28 20:30:00,58.6,30.3,30.25,WSW,243,4.0,8.0,34,0.00,,---,0.00,VWS V14.01,2013-03-29 00:30:00,
2013-03-28 20:31:00,50.9,30.9,30.28,West,275,0.0,1.0,46,0.00,,---,0.00,VWS V14.01,2013-03-29 00:31:00,
2013-03-28 20:35:00,58.6,30.3,30.25,SE,131,5.0,15.0,34,0.00,,---,0.00,VWS V14.01,2013-03-29 00:35:00,
2013-03-28 20:37:00,50.6,31.1,30.28,West,274,0.0,1.0,47,0.00,,---,0.00,VWS V14.01,2013-03-29 00:37:00,
2013-03-28 20:40:00,58.2,30.7,30.25,West,263,5.0,10.0,35,0.00,,---,0.00,VWS V14.01,2013-03-29 00:40:00,
2013-03-28 20:42:00,50.3,31.9,30.28,West,274,0.0,0.0,49,0.00,,---,0.00,VWS V14.01,2013-03-29 00:42:00,
2013-03-28 20:45:00,57.9,31.1,30.25,WSW,243,2.0,7.0,36,0.00,,---,0.00,VWS V14.01,2013-03-29 00:45:00,
2013-03-28 20:47:00,49.6,31.7,30.28,West,274,0.0,1.0,50,0.00,,---,0.00,VWS V14.01,2013-03-29 00:47:00,
2013-03-28 20:50:00,57.8,30.4,30.26,SE,139,4.0,6.0,35,0.00,,---,0.00,VWS V14.01,2013-03-29 00:50:00,
2013-03-28 20:52:00,49.3,31.5,30.28,West,274,0.0,0.0,50,0.00,,---,0.00,VWS V14.01,2013-03-29 00:52:00,
2013-03-28 20:55:00,57.6,30.9,30.26,ESE,110,6.0,7.0,36,0.00,,---,0.00,VWS V14.01,2013-03-29 00:55:00,
2013-03-28 20:57:00,49.0,31.2,30.28,West,274,0.0,0.0,50,0.00,,---,0.00,VWS V14.01,2013-03-29 00:57:00,
2013-03-28 21:00:00,57.4,30.7,30.26,West,259,0.0,6.0,36,0.00,,---,0.00,VWS V14.01,2013-03-29 01:00:00,
2013-03-28 21:02:00,48.8,31.5,30.29,West,274,0.0,1.0,51,0.00,,---,0.00,VWS V14.01,2013-03-29 01:02:00,
2013-03-28 21:05:00,57.4,30.7,30.26,SW,219,2.0,9.0,36,0.00,,---,0.00,VWS V14.01,2013-03-29 01:05:00,
2013-03-28 21:07:00,48.7,31.4,30.29,West,274,0.0,0.0,51,0.00,,---,0.00,VWS V14.01,2013-03-29 01:07:00,
2013-03-28 21:10:00,57.1,30.4,30.26,WSW,253,3.0,9.0,36,0.00,,---,0.00,VWS V14.01,2013-03-29 01:10:00,
2013-03-28 21:12:00,48.5,31.2,30.29,West,274,0.0,0.0,51,0.00,,---,0.00,VWS V14.01,2013-03-29 01:12:00,
2013-03-28 21:15:00,56.8,30.1,30.26,WSW,243,2.0,8.0,36,0.00,,---,0.00,VWS V14.01,2013-03-29 01:15:00,
2013-03-28 21:17:00,48.3,31.0,30.29,West,274,0.0,0.0,51,0.00,,---,0.00,VWS V14.01,2013-03-29 01:17:00,
2013-03-28 21:20:00,56.5,31.2,30.26,SE,146,2.0,8.0,38,0.00,,---,0.00,VWS V14.01,2013-03-29 01:20:00,
2013-03-28 21:22:00,48.0,31.2,30.29,West,274,0.0,0.0,52,0.00,,---,0.00,VWS V14.01,2013-03-29 01:22:00,
2013-03-28 21:25:00,56.3,31.0,30.26,NE,34,1.0,3.0,38,0.00,,---,0.00,VWS V14.01,2013-03-29 01:25:00,
2013-03-28 21:27:00,47.5,31.7,30.29,West,274,0.0,0.0,54,0.00,,---,0.00,VWS V14.01,2013-03-29 01:27:00,
2013-03-28 21:30:00,56.0,30.8,30.26,SW,214,0.0,5.0,38,0.00,,---,0.00,VWS V14.01,2013-03-29 01:30:00,
2013-03-28 21:32:00,47.3,31.5,30.30,West,274,0.0,0.0,54,0.00,,---,0.00,VWS V14.01,2013-03-29 01:32:00,
2013-03-28 21:35:00,55.5,31.0,30.26,SE,139,1.0,4.0,39,0.00,,---,0.00,VWS V14.01,2013-03-29 01:35:00,
2013-03-28 21:37:00,47.1,32.2,30.30,West,274,0.0,1.0,56,0.00,,---,0.00,VWS V14.01,2013-03-29 01:37:00,
2013-03-28 21:40:00,55.1,31.2,30.26,SSW,212,1.0,3.0,40,0.00,,---,0.00,VWS V14.01,2013-03-29 01:40:00,
2013-03-28 21:42:00,46.8,31.5,30.30,West,274,0.0,0.0,55,0.00,,---,0.00,VWS V14.01,2013-03-29 01:42:00,
2013-03-28 21:45:00,54.7,30.9,30.26,SW,219,1.0,3.0,40,0.00,,---,0.00,VWS V14.01,2013-03-29 01:45:00,
2013-03-28 21:47:00,46.5,31.2,30.30,West,274,0.0,0.0,55,0.00,,---,0.00,VWS V14.01,2013-03-29 01:47:00,
2013-03-28 21:50:00,54.4,31.2,30.27,West,262,2.0,2.0,41,0.00,,---,0.00,VWS V14.01,2013-03-29 01:50:00,
2013-03-28 21:52:00,46.4,31.1,30.30,West,274,0.0,0.0,55,0.00,,---,0.00,VWS V14.01,2013-03-29 01:52:00,
2013-03-28 21:55:00,53.8,30.7,30.27,SE,146,3.0,4.0,41,0.00,,---,0.00,VWS V14.01,2013-03-29 01:55:00,
2013-03-28 21:58:00,46.3,31.5,30.30,West,274,0.0,1.0,56,0.00,,---,0.00,VWS V14.01,2013-03-29 01:58:00,
2013-03-28 22:00:00,53.7,31.2,30.27,WSW,242,0.0,3.0,42,0.00,,---,0.00,VWS V14.01,2013-03-29 02:00:00,
2013-03-28 22:03:00,46.2,31.4,30.30,West,274,0.0,1.0,56,0.00,,---,0.00,VWS V14.01,2013-03-29 02:03:00,
2013-03-28 22:05:00,53.3,30.8,30.28,WSW,241,0.0,1.0,42,0.00,,---,0.00,VWS V14.01,2013-03-29 02:05:00,
2013-03-28 22:08:00,46.0,31.6,30.30,West,276,0.0,0.0,57,0.00,,---,0.00,VWS V14.01,2013-03-29 02:08:00,
2013-03-28 22:10:00,52.9,31.0,30.28,West,275,0.0,3.0,43,0.00,,---,0.00,VWS V14.01,2013-03-29 02:10:00,
2013-03-28 22:13:00,45.6,31.7,30.30,West,274,0.0,0.0,58,0.00,,---,0.00,VWS V14.01,2013-03-29 02:13:00,
2013-03-28 22:15:00,52.2,32.1,30.28,West,275,0.0,1.0,46,0.00,,---,0.00,VWS V14.01,2013-03-29 02:15:00,
2013-03-28 22:18:00,45.1,31.6,30.30,West,274,0.0,0.0,59,0.00,,---,0.00,VWS V14.01,2013-03-29 02:18:00,
2013-03-28 22:20:00,51.6,31.5,30.28,West,274,0.0,1.0,46,0.00,,---,0.00,VWS V14.01,2013-03-29 02:20:00,
2013-03-28 22:23:00,44.9,31.5,30.30,West,275,0.0,0.0,59,0.00,,---,0.00,VWS V14.01,2013-03-29 02:23:00,
2013-03-28 22:25:00,51.4,31.9,30.28,West,274,0.0,0.0,47,0.00,,---,0.00,VWS V14.01,2013-03-29 02:25:00,
2013-03-28 22:28:00,44.7,31.7,30.30,West,275,0.0,0.0,60,0.00,,---,0.00,VWS V14.01,2013-03-29 02:28:00,
2013-03-28 22:30:00,51.0,31.5,30.28,West,274,0.0,1.0,47,0.00,,---,0.00,VWS V14.01,2013-03-29 02:30:00,
2013-03-28 22:33:00,44.2,32.0,30.30,West,274,0.0,0.0,62,0.00,,---,0.00,VWS V14.01,2013-03-29 02:33:00,
2013-03-28 22:35:00,50.7,31.2,30.28,West,274,0.0,1.0,47,0.00,,---,0.00,VWS V14.01,2013-03-29 02:35:00,
2013-03-28 22:38:00,43.9,31.7,30.30,West,275,0.0,0.0,62,0.00,,---,0.00,VWS V14.01,2013-03-29 02:38:00,
2013-03-28 22:40:00,50.4,31.5,30.28,West,274,0.0,1.0,48,0.00,,---,0.00,VWS V14.01,2013-03-29 02:40:00,
2013-03-28 22:43:00,43.5,31.8,30.30,West,275,0.0,0.0,63,0.00,,---,0.00,VWS V14.01,2013-03-29 02:43:00,
2013-03-28 22:45:00,49.9,32.0,30.28,West,274,0.0,1.0,50,0.00,,---,0.00,VWS V14.01,2013-03-29 02:45:00,
2013-03-28 22:48:00,43.1,31.4,30.31,West,275,0.0,0.0,63,0.00,,---,0.00,VWS V14.01,2013-03-29 02:48:00,
2013-03-28 22:50:00,49.3,31.5,30.28,West,274,0.0,1.0,50,0.00,,---,0.00,VWS V14.01,2013-03-29 02:50:00,
2013-03-28 22:53:00,42.9,31.6,30.30,West,276,0.0,0.0,64,0.00,,---,0.00,VWS V14.01,2013-03-29 02:53:00,
2013-03-28 22:55:00,49.1,31.3,30.28,West,275,0.0,1.0,50,0.00,,---,0.00,VWS V14.01,2013-03-29 02:55:00,
2013-03-28 22:58:00,42.4,31.9,30.31,West,276,0.0,0.0,66,0.00,,---,0.00,VWS V14.01,2013-03-29 02:58:00,
2013-03-28 23:00:00,48.8,31.0,30.28,West,275,0.0,0.0,50,0.00,,---,0.00,VWS V14.01,2013-03-29 03:00:00,
2013-03-28 23:03:00,42.1,31.6,30.31,West,275,0.0,0.0,66,0.00,,---,0.00,VWS V14.01,2013-03-29 03:03:00,
2013-03-28 23:05:00,48.7,30.9,30.29,West,274,0.0,1.0,50,0.00,,---,0.00,VWS V14.01,2013-03-29 03:05:00,
2013-03-28 23:08:00,41.9,31.8,30.31,West,276,0.0,0.0,67,0.00,,---,0.00,VWS V14.01,2013-03-29 03:08:00,
2013-03-28 23:10:00,48.6,31.3,30.29,West,274,0.0,0.0,51,0.00,,---,0.00,VWS V14.01,2013-03-29 03:10:00,
2013-03-28 23:13:00,41.6,32.2,30.31,West,276,0.0,0.0,69,0.00,,---,0.00,VWS V14.01,2013-03-29 03:13:00,
2013-03-28 23:15:00,48.3,31.5,30.29,West,275,0.0,0.0,52,0.00,,---,0.00,VWS V14.01,2013-03-29 03:15:00,
2013-03-28 23:18:00,41.3,33.0,30.31,West,276,0.0,0.0,72,0.00,,---,0.00,VWS V14.01,2013-03-29 03:18:00,
2013-03-28 23:20:00,48.2,31.4,30.29,West,274,0.0,0.0,52,0.00,,---,0.00,VWS V14.01,2013-03-29 03:20:00,
2013-03-28 23:23:00,41.1,32.1,30.31,West,276,0.0,0.0,70,0.00,,---,0.00,VWS V14.01,2013-03-29 03:23:00,
2013-03-28 23:25:00,47.7,31.0,30.29,West,274,0.0,1.0,52,0.00,,---,0.00,VWS V14.01,2013-03-29 03:25:00,
2013-03-28 23:28:00,40.8,32.1,30.31,West,275,0.0,0.0,71,0.00,,---,0.00,VWS V14.01,2013-03-29 03:28:00,
2013-03-28 23:30:00,47.4,31.1,30.29,West,274,0.0,0.0,53,0.00,,---,0.00,VWS V14.01,2013-03-29 03:30:00,
2013-03-28 23:33:00,40.5,31.9,30.31,West,275,0.0,0.0,71,0.00,,---,0.00,VWS V14.01,2013-03-29 03:33:00,
2013-03-28 23:35:00,47.2,31.4,30.30,West,274,0.0,1.0,54,0.00,,---,0.00,VWS V14.01,2013-03-29 03:35:00,
2013-03-28 23:38:00,40.3,31.7,30.31,West,276,0.0,0.0,71,0.00,,---,0.00,VWS V14.01,2013-03-29 03:38:00,
2013-03-28 23:40:00,47.0,31.7,30.30,West,274,0.0,1.0,55,0.00,,---,0.00,VWS V14.01,2013-03-29 03:40:00,
2013-03-28 23:43:00,40.2,31.9,30.31,West,275,0.0,0.0,72,0.00,,---,0.00,VWS V14.01,2013-03-29 03:43:00,
2013-03-28 23:45:00,46.7,31.4,30.30,West,274,0.0,0.0,55,0.00,,---,0.00,VWS V14.01,2013-03-29 03:45:00,
2013-03-28 23:48:00,39.9,31.6,30.31,West,276,0.0,0.0,72,0.00,,---,0.00,VWS V14.01,2013-03-29 03:48:00,
2013-03-28 23:50:00,46.4,31.1,30.30,West,274,0.0,1.0,55,0.00,,---,0.00,VWS V14.01,2013-03-29 03:50:00,
2013-03-28 23:53:00,39.6,31.7,30.30,West,276,0.0,0.0,73,0.00,,---,0.00,VWS V14.01,2013-03-29 03:53:00,
2013-03-28 23:55:00,46.3,31.5,30.30,West,274,0.0,0.0,56,0.00,,---,0.00,VWS V14.01,2013-03-29 03:55:00,
2013-03-28 23:58:00,39.6,32.0,30.30,West,276,0.0,0.0,74,0.00,,---,0.00,VWS V14.01,2013-03-29 03:58:00,